| time (UTC) | temp F | wind direction | speed MPH | gust MPH | rain 1hr in | rain 24hr in | rain mn in | humidity % | barometer mb |
| 20260902023552 | 68 | 211 | 0.0 | 2.0 | 0.00 | 0.01 | 0.01 | 76 | 1012.7 |
| 20260902023003 | 67 | 148 | 0.0 | 2.0 | 0.00 | 0.01 | 0.01 | 75 | 1012.6 |
| 20260902022526 | 68 | 148 | 0.0 | 0.0 | 0.00 | 0.01 | 0.01 | 75 | 1012.5 |
| 20260902021603 | 68 | 201 | 0.0 | 1.0 | 0.00 | 0.01 | 0.01 | 72 | 1012.6 |
| 20260902021509 | 69 | 225 | 0.0 | 0.0 | 0.00 | 0.01 | 0.01 | 72 | 1012.5 |
| 20260902020529 | 70 | 228 | 0.0 | 3.0 | 0.00 | 0.01 | 0.01 | 71 | 1012.5 |
| 20260902020139 | 69 | 240 | 1.0 | 3.0 | 0.00 | 0.01 | 0.01 | 70 | 1012.5 |
| 20260902015509 | 70 | 237 | 0.0 | 3.0 | 0.00 | 0.01 | 0.01 | 69 | 1012.5 |
| 20260902014507 | 71 | 198 | 0.0 | 3.0 | 0.00 | 0.01 | 0.01 | 67 | 1012.6 |
| 20260902014503 | 71 | 198 | 0.0 | 1.0 | 0.00 | 0.01 | 0.01 | 67 | 1012.5 |
| 20260902013116 | 72 | 148 | 0.0 | 3.0 | 0.00 | 0.01 | 0.01 | 63 | 1012.6 |
| 20260902012339 | 72 | 146 | 0.0 | 3.0 | 0.00 | 0.01 | 0.01 | 61 | 1012.6 |
| 20260902011502 | 72 | 193 | 1.0 | 6.0 | 0.00 | 0.01 | 0.01 | 59 | 1012.7 |
| 20260902011318 | 73 | 242 | 1.0 | 5.0 | 0.00 | 0.01 | 0.01 | 58 | 1012.6 |
| 20260902010336 | 73 | 226 | 0.0 | 5.0 | 0.00 | 0.01 | 0.01 | 60 | 1012.7 |
| 20260902010002 | 73 | 228 | 0.0 | 4.0 | 0.00 | 0.01 | 0.01 | 58 | 1012.8 |
| 20260902005356 | 74 | 203 | 1.0 | 5.0 | 0.00 | 0.01 | 0.01 | 57 | 1012.8 |
| 20260902004603 | 73 | 148 | 2.0 | 6.0 | 0.00 | 0.01 | 0.01 | 58 | 1013.0 |
| 20260902003232 | 75 | 218 | 1.0 | 5.0 | 0.00 | 0.01 | 0.01 | 54 | 1012.9 |
| 20260902003005 | 74 | 223 | 2.0 | 6.0 | 0.00 | 0.01 | 0.01 | 56 | 1012.9 |
| 20260902002209 | 76 | 254 | 0.0 | 6.0 | 0.00 | 0.01 | 0.01 | 55 | 1012.9 |
| 20260902001602 | 75 | 199 | 1.0 | 7.0 | 0.00 | 0.01 | 0.01 | 55 | 1012.9 |
| 20260902001159 | 75 | 210 | 2.0 | 6.0 | 0.00 | 0.01 | 0.01 | 57 | 1012.9 |
| 20260902000211 | 76 | 174 | 1.0 | 5.0 | 0.00 | 0.01 | 0.01 | 53 | 1012.9 |
| 20260901235202 | 76 | 214 | 2.0 | 5.0 | 0.00 | 0.01 | 0.01 | 48 | 1013.0 |
| 20260901234504 | 75 | 214 | 3.0 | 7.0 | 0.00 | 0.01 | 0.01 | 48 | 1013.0 |
| 20260901234139 | 76 | 240 | 2.0 | 6.0 | 0.00 | 0.01 | 0.01 | 50 | 1013.0 |
| 20260901233104 | 76 | 241 | 1.0 | 8.0 | 0.00 | 0.01 | 0.01 | 47 | 1013.0 |
| 20260901231503 | 77 | 208 | 3.0 | 8.0 | 0.00 | 0.01 | 0.01 | 48 | 1013.1 |
| 20260901230917 | 79 | 212 | 2.0 | 10.0 | 0.00 | 0.01 | 0.01 | 52 | 1013.1 |
| 20260901230008 | 78 | 259 | 3.0 | 11.0 | 0.00 | 0.01 | 0.01 | 51 | 1013.2 |
| 20260901225936 | 78 | 268 | 3.0 | 10.0 | 0.00 | 0.01 | 0.01 | 51 | 1013.2 |
| 20260901224943 | 79 | 146 | 2.0 | 9.0 | 0.00 | 0.01 | 0.01 | 53 | 1013.2 |
| 20260901224609 | 79 | 136 | 1.0 | 9.0 | 0.00 | 0.01 | 0.01 | 55 | 1013.2 |
| 20260901223940 | 79 | 243 | 3.0 | 9.0 | 0.00 | 0.01 | 0.01 | 53 | 1013.3 |
| 20260901223003 | 78 | 220 | 4.0 | 9.0 | 0.00 | 0.01 | 0.01 | 52 | 1013.3 |
| 20260901222906 | 79 | 259 | 3.0 | 9.0 | 0.00 | 0.01 | 0.01 | 51 | 1013.3 |
| 20260901221631 | 79 | 236 | 5.0 | 10.0 | 0.00 | 0.01 | 0.01 | 52 | 1013.4 |
| 20260901220752 | 79 | 181 | 4.0 | 9.0 | 0.00 | 0.01 | 0.01 | 53 | 1013.3 |
| 20260901220107 | 79 | 177 | 5.0 | 10.0 | 0.00 | 0.01 | 0.01 | 50 | 1013.4 |
| 20260901215744 | 80 | 196 | 4.0 | 9.0 | 0.00 | 0.01 | 0.01 | 51 | 1013.4 |
| 20260901214721 | 80 | 153 | 3.0 | 9.0 | 0.00 | 0.01 | 0.01 | 53 | 1013.4 |
| 20260901214502 | 79 | 248 | 4.0 | 9.0 | 0.00 | 0.01 | 0.01 | 50 | 1013.5 |
| 20260901213709 | 80 | 213 | 2.0 | 9.0 | 0.00 | 0.01 | 0.01 | 52 | 1013.5 |
| 20260901213107 | 80 | 202 | 1.0 | 8.0 | 0.00 | 0.01 | 0.01 | 50 | 1013.6 |
| 20260901212659 | 81 | 131 | 2.0 | 8.0 | 0.00 | 0.01 | 0.01 | 50 | 1013.6 |
| 20260901211714 | 79 | 200 | 3.0 | 9.0 | 0.00 | 0.01 | 0.01 | 52 | 1013.6 |
| 20260901211502 | 79 | 235 | 5.0 | 9.0 | 0.00 | 0.01 | 0.01 | 52 | 1013.7 |
| 20260901210004 | 79 | 210 | 5.0 | 10.0 | 0.00 | 0.01 | 0.01 | 57 | 1013.8 |
| 20260901205609 | 79 | 140 | 3.0 | 9.0 | 0.00 | 0.01 | 0.01 | 56 | 1013.7 |
| 20260901204622 | 80 | 236 | 3.0 | 9.0 | 0.00 | 0.01 | 0.01 | 56 | 1013.9 |
| 20260901204603 | 79 | 240 | 6.0 | 10.0 | 0.00 | 0.01 | 0.01 | 56 | 1013.9 |
| 20260901203636 | 80 | 162 | 3.0 | 8.0 | 0.00 | 0.01 | 0.01 | 56 | 1013.9 |
| 20260901203003 | 80 | 206 | 4.0 | 8.0 | 0.00 | 0.01 | 0.01 | 54 | 1013.9 |
| 20260901201602 | 79 | 245 | 5.0 | 10.0 | 0.00 | 0.01 | 0.01 | 57 | 1014.1 |
| 20260901201524 | 80 | 232 | 3.0 | 9.0 | 0.00 | 0.01 | 0.01 | 56 | 1014.1 |
| 20260901200541 | 80 | 196 | 3.0 | 10.0 | 0.00 | 0.01 | 0.01 | 58 | 1014.1 |
| 20260901195540 | 80 | 203 | 4.0 | 10.0 | 0.00 | 0.01 | 0.01 | 57 | 1014.2 |
| 20260901194521 | 80 | 216 | 3.0 | 9.0 | 0.00 | 0.01 | 0.01 | 56 | 1014.3 |
| 20260901194502 | 80 | 201 | 4.0 | 9.0 | 0.00 | 0.01 | 0.01 | 57 | 1014.4 |
| 20260901193520 | 79 | 274 | 3.0 | 9.0 | 0.00 | 0.01 | 0.01 | 55 | 1014.4 |
| 20260901193111 | 79 | 210 | 3.0 | 10.0 | 0.00 | 0.01 | 0.01 | 58 | 1014.5 |
| 20260901192502 | 80 | 225 | 2.0 | 9.0 | 0.00 | 0.01 | 0.01 | 57 | 1014.4 |
| 20260901191512 | 80 | 182 | 3.0 | 9.0 | 0.00 | 0.01 | 0.01 | 56 | 1014.6 |
| 20260901191508 | 79 | 212 | 3.0 | 9.0 | 0.00 | 0.01 | 0.01 | 56 | 1014.6 |
| 20260901190514 | 80 | 198 | 1.0 | 9.0 | 0.00 | 0.01 | 0.01 | 55 | 1014.6 |
| 20260901185459 | 77 | 169 | 3.0 | 9.0 | 0.00 | 0.01 | 0.01 | 60 | 1014.6 |
| 20260901184518 | 77 | 290 | 3.0 | 9.0 | 0.00 | 0.01 | 0.01 | 61 | 1014.6 |
| 20260901184503 | 77 | 214 | 3.0 | 7.0 | 0.00 | 0.01 | 0.01 | 61 | 1014.7 |
| 20260901183511 | 78 | 212 | 0.0 | 6.0 | 0.00 | 0.01 | 0.01 | 61 | 1014.7 |
| 20260901183108 | 78 | 187 | 0.0 | 4.0 | 0.00 | 0.01 | 0.01 | 61 | 1014.8 |
| 20260901182507 | 77 | 157 | 1.0 | 6.0 | 0.00 | 0.01 | 0.01 | 63 | 1014.8 |
| 20260901181503 | 75 | 215 | 2.0 | 8.0 | 0.00 | 0.01 | 0.01 | 67 | 1014.9 |
| 20260901181433 | 75 | 198 | 3.0 | 7.0 | 0.00 | 0.01 | 0.01 | 67 | 1014.8 |
| 20260901180449 | 76 | 226 | 1.0 | 6.0 | 0.00 | 0.01 | 0.01 | 66 | 1014.8 |
| 20260901180003 | 75 | 213 | 1.0 | 6.0 | 0.00 | 0.01 | 0.01 | 69 | 1014.9 |
| 20260901175430 | 75 | 198 | 2.0 | 6.0 | 0.00 | 0.01 | 0.01 | 68 | 1014.7 |
| 20260901174603 | 73 | 159 | 1.0 | 4.0 | 0.00 | 0.01 | 0.01 | 71 | 1014.9 |
| 20260901174446 | 73 | 210 | 1.0 | 7.0 | 0.00 | 0.01 | 0.01 | 70 | 1014.8 |
| 20260901173451 | 73 | 207 | 2.0 | 7.0 | 0.00 | 0.01 | 0.01 | 71 | 1014.8 |
| 20260901173004 | 72 | 189 | 2.0 | 8.0 | 0.00 | 0.01 | 0.01 | 73 | 1014.9 |
| 20260901172450 | 72 | 217 | 2.0 | 6.0 | 0.00 | 0.01 | 0.01 | 73 | 1014.8 |
| 20260901171607 | 71 | 227 | 2.0 | 6.0 | 0.00 | 0.01 | 0.01 | 74 | 1014.7 |
| 20260901171435 | 72 | 242 | 2.0 | 7.0 | 0.00 | 0.01 | 0.01 | 75 | 1014.6 |
| 20260901170408 | 71 | 213 | 2.0 | 6.0 | 0.00 | 0.01 | 0.01 | 76 | 1014.6 |
| 20260901170104 | 70 | 138 | 2.0 | 5.0 | 0.00 | 0.01 | 0.01 | 77 | 1014.6 |
| 20260901165427 | 70 | 205 | 2.0 | 6.0 | 0.00 | 0.01 | 0.01 | 78 | 1014.5 |
| 20260901164503 | 69 | 203 | 2.0 | 5.0 | 0.00 | 0.01 | 0.01 | 79 | 1014.8 |
| 20260901164449 | 69 | 205 | 1.0 | 4.0 | 0.00 | 0.01 | 0.01 | 80 | 1014.7 |
| 20260901163443 | 68 | 245 | 2.0 | 5.0 | 0.00 | 0.01 | 0.01 | 81 | 1014.7 |
| 20260901163119 | 67 | 221 | 2.0 | 6.0 | 0.00 | 0.01 | 0.01 | 82 | 1014.7 |
| 20260901162505 | 68 | 131 | 1.0 | 3.0 | 0.00 | 0.01 | 0.01 | 81 | 1014.7 |
| 20260901161506 | 67 | 193 | 1.0 | 5.0 | 0.00 | 0.01 | 0.01 | 83 | 1014.8 |
| 20260901161433 | 67 | 170 | 1.0 | 3.0 | 0.00 | 0.01 | 0.01 | 83 | 1014.7 |
| 20260901160441 | 66 | 200 | 0.0 | 4.0 | 0.00 | 0.01 | 0.01 | 85 | 1014.7 |
| 20260901160006 | 66 | 185 | 1.0 | 4.0 | 0.00 | 0.01 | 0.01 | 85 | 1014.7 |
| 20260901155444 | 66 | 226 | 1.0 | 4.0 | 0.00 | 0.01 | 0.01 | 86 | 1014.6 |
| 20260901154602 | 65 | 240 | 2.0 | 5.0 | 0.00 | 0.01 | 0.01 | 87 | 1014.5 |
| 20260901154504 | 65 | 234 | 0.0 | 3.0 | 0.00 | 0.01 | 0.01 | 88 | 1014.5 |
| 20260901153527 | 64 | 183 | 0.0 | 3.0 | 0.00 | 0.01 | 0.01 | 90 | 1014.5 |
| 20260901153005 | 64 | 215 | 1.0 | 4.0 | 0.01 | 0.01 | 0.01 | 90 | 1014.4 |
| 20260901152535 | 64 | 146 | 0.0 | 1.0 | 0.00 | 0.01 | 0.01 | 91 | 1014.4 |
| 20260901151604 | 63 | 214 | 0.0 | 2.0 | 0.01 | 0.01 | 0.01 | 92 | 1014.6 |
| 20260901151545 | 63 | 214 | 0.0 | 0.0 | 0.00 | 0.01 | 0.01 | 92 | 1014.5 |
| 20260901150538 | 63 | 210 | 0.0 | 0.0 | 0.00 | 0.01 | 0.01 | 93 | 1014.4 |
| 20260901150111 | 62 | 210 | 0.0 | 1.0 | 0.01 | 0.01 | 0.01 | 93 | 1014.3 |
| 20260901145601 | 62 | 37 | 0.0 | 0.0 | 0.00 | 0.01 | 0.01 | 93 | 1014.1 |
| 20260901144527 | 62 | 357 | 0.0 | 0.0 | 0.00 | 0.01 | 0.01 | 94 | 1013.8 |
| 20260901144503 | 61 | 357 | 0.0 | 1.0 | 0.01 | 0.01 | 0.01 | 94 | 1013.9 |
| 20260901143502 | 61 | 356 | 0.0 | 0.0 | 0.00 | 0.00 | 0.01 | 95 | 1013.8 |
| 20260901143108 | 61 | 356 | 0.0 | 1.0 | 0.00 | 0.00 | 0.00 | 95 | 1013.8 |
| 20260901142433 | 61 | 356 | 0.0 | 0.0 | 0.00 | 0.00 | 0.00 | 95 | 1013.7 |
| 20260901141505 | 60 | 354 | 0.0 | 1.0 | 0.00 | 0.00 | 0.00 | 95 | 1013.8 |
| 20260901141408 | 60 | 354 | 0.0 | 0.0 | 0.00 | 0.00 | 0.00 | 95 | 1013.7 |
| 20260901140411 | 59 | 352 | 0.0 | 0.0 | 0.00 | 0.00 | 0.00 | 95 | 1013.6 |
| 20260901140004 | 59 | 348 | 0.0 | 1.0 | 0.00 | 0.00 | 0.00 | 95 | 1013.6 |
| 20260901135342 | 59 | 347 | 0.0 | 0.0 | 0.00 | 0.00 | 0.00 | 95 | 1013.6 |
| 20260901134629 | 59 | 347 | 0.0 | 1.0 | 0.00 | 0.00 | 0.00 | 95 | 1013.5 |
| 20260901134338 | 59 | 347 | 0.0 | 0.0 | 0.00 | 0.00 | 0.00 | 95 | 1013.4 |
| 20260901133314 | 59 | 349 | 0.0 | 0.0 | 0.00 | 0.00 | 0.00 | 95 | 1013.3 |
| 20260901133002 | 58 | 349 | 0.0 | 1.0 | 0.00 | 0.00 | 0.00 | 95 | 1013.4 |
| 20260901132243 | 59 | 349 | 0.0 | 0.0 | 0.00 | 0.00 | 0.00 | 95 | 1013.4 |
| 20260901131603 | 58 | 349 | 0.0 | 1.0 | 0.00 | 0.00 | 0.00 | 95 | 1013.4 |
| 20260901131229 | 58 | 349 | 0.0 | 0.0 | 0.00 | 0.00 | 0.00 | 94 | 1013.3 |
| 20260901130245 | 59 | 349 | 0.0 | 0.0 | 0.00 | 0.00 | 0.00 | 94 | 1013.2 |
| 20260901130111 | 58 | 349 | 0.0 | 1.0 | 0.00 | 0.00 | 0.00 | 94 | 1013.3 |
| 20260901125213 | 59 | 349 | 0.0 | 0.0 | 0.00 | 0.00 | 0.00 | 95 | 1013.1 |
| 20260901124504 | 58 | 350 | 1.0 | 1.0 | 0.00 | 0.00 | 0.00 | 95 | 1013.2 |
| 20260901124202 | 58 | 350 | 0.0 | 0.0 | 0.00 | 0.00 | 0.00 | 94 | 1013.1 |
| 20260901123141 | 59 | 350 | 0.0 | 0.0 | 0.00 | 0.00 | 0.00 | 95 | 1013.2 |
| 20260901123105 | 58 | 350 | 0.0 | 1.0 | 0.00 | 0.00 | 0.00 | 95 | 1013.2 |
| 20260901121504 | 59 | 350 | 0.0 | 1.0 | 0.00 | 0.00 | 0.00 | 94 | 1013.2 |
| 20260901120954 | 59 | 349 | 0.0 | 0.0 | 0.00 | 0.00 | 0.00 | 94 | 1013.1 |
| 20260901120106 | 59 | 351 | 0.0 | 1.0 | 0.00 | 0.00 | 0.00 | 94 | 1013.1 |
| 20260901114821 | 59 | 351 | 0.0 | 0.0 | 0.00 | 0.00 | 0.00 | 95 | 1013.0 |
| 20260901114502 | 58 | 352 | 1.0 | 1.0 | 0.00 | 0.00 | 0.00 | 94 | 1013.1 |
| 20260901113140 | 59 | 352 | 1.0 | 1.0 | 0.00 | 0.00 | 0.00 | 94 | 1013.0 |
| 20260901112653 | 59 | 352 | 0.0 | 0.0 | 0.00 | 0.00 | 0.00 | 94 | 1013.0 |
| 20260901111704 | 59 | 22 | 0.0 | 0.0 | 0.00 | 0.00 | 0.00 | 94 | 1013.1 |
| 20260901111503 | 59 | 23 | 0.0 | 1.0 | 0.00 | 0.00 | 0.00 | 94 | 1013.1 |
| 20260901110628 | 59 | 23 | 0.0 | 0.0 | 0.00 | 0.00 | 0.00 | 94 | 1013.0 |
| 20260901110003 | 59 | 23 | 0.0 | 1.0 | 0.00 | 0.00 | 0.00 | 93 | 1013.1 |
| 20260901105556 | 60 | 22 | 0.0 | 0.0 | 0.00 | 0.00 | 0.00 | 95 | 1013.2 |
| 20260901104614 | 60 | 23 | 0.0 | 0.0 | 0.00 | 0.00 | 0.00 | 94 | 1013.1 |
| 20260901104606 | 59 | 23 | 0.0 | 1.0 | 0.00 | 0.00 | 0.00 | 94 | 1013.1 |
| 20260901103634 | 60 | 23 | 0.0 | 1.0 | 0.00 | 0.00 | 0.00 | 94 | 1013.2 |
| 20260901103004 | 59 | 23 | 1.0 | 1.0 | 0.00 | 0.00 | 0.00 | 94 | 1013.3 |
| 20260901102603 | 60 | 23 | 0.0 | 0.0 | 0.00 | 0.00 | 0.00 | 94 | 1013.2 |
| 20260901101616 | 59 | 23 | 0.0 | 1.0 | 0.00 | 0.00 | 0.00 | 93 | 1013.2 |
| 20260901101556 | 59 | 23 | 0.0 | 0.0 | 0.00 | 0.00 | 0.00 | 93 | 1013.2 |
| 20260901100615 | 60 | 23 | 0.0 | 0.0 | 0.00 | 0.00 | 0.00 | 94 | 1013.3 |
| 20260901100115 | 60 | 23 | 0.0 | 1.0 | 0.00 | 0.00 | 0.00 | 93 | 1013.4 |
| 20260901095628 | 60 | 23 | 0.0 | 0.0 | 0.00 | 0.00 | 0.00 | 94 | 1013.4 |
| 20260901094646 | 60 | 23 | 0.0 | 0.0 | 0.00 | 0.00 | 0.00 | 93 | 1013.3 |
| 20260901094503 | 59 | 23 | 0.0 | 1.0 | 0.00 | 0.00 | 0.00 | 93 | 1013.3 |
| 20260901093010 | 59 | 23 | 0.0 | 1.0 | 0.00 | 0.00 | 0.00 | 93 | 1013.2 |
| 20260901092552 | 60 | 23 | 0.0 | 0.0 | 0.00 | 0.00 | 0.00 | 93 | 1013.2 |
| 20260901091604 | 60 | 23 | 0.0 | 1.0 | 0.00 | 0.00 | 0.00 | 93 | 1013.1 |
| 20260901091519 | 60 | 23 | 0.0 | 0.0 | 0.00 | 0.00 | 0.00 | 93 | 1013.1 |
| 20260901090505 | 60 | 25 | 0.0 | 0.0 | 0.00 | 0.00 | 0.00 | 93 | 1013.2 |
| 20260901090104 | 60 | 24 | 0.0 | 1.0 | 0.00 | 0.00 | 0.00 | 93 | 1013.3 |
| 20260901085512 | 60 | 23 | 0.0 | 0.0 | 0.00 | 0.00 | 0.00 | 93 | 1013.3 |
| 20260901084502 | 60 | 25 | 1.0 | 1.0 | 0.00 | 0.00 | 0.00 | 93 | 1013.4 |
| 20260901083508 | 60 | 25 | 0.0 | 0.0 | 0.00 | 0.00 | 0.00 | 93 | 1013.3 |
| 20260901083103 | 60 | 40 | 0.0 | 1.0 | 0.00 | 0.00 | 0.00 | 93 | 1013.4 |
| 20260901082447 | 60 | 40 | 0.0 | 0.0 | 0.00 | 0.00 | 0.00 | 93 | 1013.3 |
| 20260901081509 | 61 | 40 | 0.0 | 0.0 | 0.00 | 0.00 | 0.00 | 93 | 1013.3 |
| 20260901081503 | 60 | 40 | 0.0 | 1.0 | 0.00 | 0.00 | 0.00 | 93 | 1013.3 |
| 20260901080515 | 61 | 40 | 0.0 | 0.0 | 0.00 | 0.00 | 0.00 | 93 | 1013.3 |
| 20260901075442 | 61 | 39 | 0.0 | 1.0 | 0.00 | 0.00 | 0.00 | 93 | 1013.3 |
| 20260901074442 | 61 | 40 | 0.0 | 1.0 | 0.00 | 0.00 | 0.00 | 92 | 1013.3 |
| 20260901073431 | 61 | 39 | 0.0 | 1.0 | 0.00 | 0.00 | 0.00 | 92 | 1013.5 |
| 20260901073002 | 61 | 39 | 0.0 | 1.0 | 0.00 | 0.00 | 0.00 | 92 | 1013.6 |
| 20260901072430 | 61 | 39 | 0.0 | 1.0 | 0.00 | 0.00 | 0.00 | 92 | 1013.6 |
| 20260901071603 | 61 | 40 | 1.0 | 1.0 | 0.00 | 0.00 | 0.00 | 91 | 1013.5 |
| 20260901071448 | 61 | 41 | 0.0 | 0.0 | 0.00 | 0.00 | 0.00 | 91 | 1013.5 |
| 20260901070427 | 62 | 41 | 0.0 | 1.0 | 0.00 | 0.00 | 0.00 | 92 | 1013.4 |
| 20260901070108 | 61 | 41 | 1.0 | 2.0 | 0.00 | 0.00 | 0.00 | 92 | 1013.4 |
| 20260901065403 | 62 | 43 | 0.0 | 0.0 | 0.00 | 0.00 | 0.00 | 91 | 1013.2 |
| 20260901064503 | 61 | 43 | 0.0 | 2.0 | 0.00 | 0.00 | 0.00 | 91 | 1013.2 |
| 20260901064409 | 62 | 43 | 0.0 | 0.0 | 0.00 | 0.00 | 0.00 | 92 | 1013.1 |
| 20260901063429 | 61 | 52 | 0.0 | 1.0 | 0.00 | 0.00 | 0.00 | 92 | 1013.1 |
| 20260901063102 | 61 | 29 | 1.0 | 2.0 | 0.00 | 0.00 | 0.00 | 92 | 1013.1 |
| 20260901061504 | 61 | 29 | 0.0 | 1.0 | 0.00 | 0.00 | 0.00 | 90 | 1012.9 |
| 20260901061352 | 61 | 29 | 0.0 | 0.0 | 0.00 | 0.00 | 0.00 | 90 | 1012.8 |
| 20260901060329 | 62 | 29 | 0.0 | 1.0 | 0.00 | 0.00 | 0.00 | 91 | 1012.9 |
| 20260901060002 | 61 | 29 | 1.0 | 2.0 | 0.00 | 0.00 | 0.00 | 90 | 1012.9 |
| 20260901055342 | 62 | 28 | 0.0 | 0.0 | 0.00 | 0.00 | 0.00 | 90 | 1012.7 |
| 20260901054603 | 61 | 28 | 1.0 | 2.0 | 0.00 | 0.00 | 0.00 | 91 | 1012.9 |
| 20260901054351 | 61 | 28 | 0.0 | 1.0 | 0.00 | 0.00 | 0.00 | 90 | 1012.9 |
| 20260901053316 | 62 | 28 | 0.0 | 0.0 | 0.00 | 0.00 | 0.00 | 89 | 1012.8 |
| 20260901053004 | 62 | 28 | 0.0 | 2.0 | 0.00 | 0.00 | 0.00 | 89 | 1012.8 |
| 20260901052308 | 63 | 15 | 0.0 | 0.0 | 0.00 | 0.00 | 0.00 | 89 | 1012.6 |
| 20260901051609 | 62 | 15 | 0.0 | 1.0 | 0.00 | 0.00 | 0.00 | 88 | 1012.7 |
| 20260901051327 | 63 | 17 | 0.0 | 0.0 | 0.00 | 0.00 | 0.00 | 88 | 1012.8 |
| 20260901050325 | 63 | 40 | 0.0 | 0.0 | 0.00 | 0.00 | 0.00 | 86 | 1012.7 |
| 20260901045252 | 63 | 14 | 0.0 | 0.0 | 0.00 | 0.00 | 0.00 | 86 | 1012.6 |
| 20260901044502 | 63 | 14 | 0.0 | 1.0 | 0.00 | 0.00 | 0.00 | 84 | 1012.6 |
| 20260901043119 | 64 | 13 | 0.0 | 1.0 | 0.00 | 0.00 | 0.00 | 84 | 1012.4 |
| 20260901043043 | 64 | 13 | 0.0 | 0.0 | 0.00 | 0.00 | 0.00 | 85 | 1012.3 |
| 20260901042057 | 64 | 25 | 0.0 | 0.0 | 0.00 | 0.00 | 0.00 | 84 | 1012.3 |
| 20260901041503 | 63 | 15 | 0.0 | 0.0 | 0.00 | 0.00 | 0.00 | 83 | 1012.4 |
| 20260901041107 | 64 | 15 | 0.0 | 0.0 | 0.00 | 0.00 | 0.00 | 82 | 1012.2 |
| 20260901040052 | 64 | 351 | 0.0 | 0.0 | 0.00 | 0.00 | 0.00 | 82 | 1011.9 |
| 20260901035117 | 63 | 350 | 0.0 | 0.0 | 0.00 | 0.00 | 0.00 | 79 | 1011.7 |
| 20260901034502 | 63 | 350 | 0.0 | 1.0 | 0.00 | 0.00 | 0.00 | 82 | 1011.7 |
| 20260901034055 | 64 | 350 | 0.0 | 0.0 | 0.00 | 0.00 | 0.00 | 82 | 1011.6 |
| 20260901033102 | 64 | 349 | 0.0 | 1.0 | 0.00 | 0.00 | 0.00 | 83 | 1011.5 |
| 20260901033023 | 65 | 349 | 0.0 | 0.0 | 0.00 | 0.00 | 0.00 | 85 | 1011.4 |
| 20260901031503 | 64 | 77 | 0.0 | 1.0 | 0.00 | 0.00 | 0.00 | 83 | 1011.3 |
| 20260901030847 | 65 | 147 | 0.0 | 0.0 | 0.00 | 0.00 | 0.00 | 80 | 1011.4 |
| 20260901030002 | 65 | 147 | 0.0 | 0.0 | 0.00 | 0.00 | 0.00 | 80 | 1011.4 |
| 20260901025813 | 66 | 147 | 0.0 | 0.0 | 0.00 | 0.00 | 0.00 | 80 | 1011.4 |
| 20260901024605 | 67 | 147 | 0.0 | 0.0 | 0.00 | 0.00 | 0.00 | 79 | 1011.3 |